Location: Ago
(8.4667°N, 4.4833°E)
Time: 23:23:46
(UTC+00:00)

H-2A R/B - Pass Details

Date: 18 September 2020
Orbit: 734 x 836 km, 98.2° (Epoch: 20 October)

Event Time Altitude Azimuth Distance (km) Brightness Sun altitude
Exits shadow 19:08:49 47° 142° (SE) 969 2.2 -22.7°
Maximum altitude 19:10:08 69° 77° (ENE) 785 1.8 -23.0°
Drops below altitude 10° 19:15:01 10° 355° (N) 2,240 4.5 -24.2°
Sets 19:17:19 0° 353° (N) 3,171 5.4 -24.8°
